| time (UTC) | temp F | wind direction | speed knots | gust knots | rain 1hr in | rain 24hr in | rain mn in | humidity % | barometer mb |
| 20260506201753 | 44 | 231 | 0.9 | 0.9 | 0.05 | 0.47 | 0.47 | 99 | 986.1 |
| 20260506201250 | 44 | 276 | 0.9 | 0.9 | 0.05 | 0.47 | 0.47 | 99 | 986.1 |
| 20260506200747 | 44 | 308 | 2.6 | 2.6 | 0.00 | 0.46 | 0.46 | 99 | 986.1 |
| 20260506200243 | 44 | 277 | 0.0 | 0.0 | 0.00 | 0.46 | 0.46 | 99 | 986.2 |
| 20260506195739 | 44 | 269 | 0.9 | 0.9 | 0.00 | 0.46 | 0.46 | 99 | 986.0 |
| 20260506195236 | 44 | 269 | 0.0 | 0.9 | 0.07 | 0.46 | 0.46 | 99 | 986.0 |
| 20260506194733 | 45 | 300 | 0.0 | 0.9 | 0.07 | 0.46 | 0.46 | 99 | 985.9 |
| 20260506194230 | 44 | 280 | 0.9 | 0.9 | 0.00 | 0.45 | 0.45 | 99 | 986.2 |
| 20260506193728 | 45 | 274 | 1.7 | 1.7 | 0.07 | 0.45 | 0.45 | 99 | 986.0 |
| 20260506193224 | 46 | 277 | 0.9 | 1.7 | 0.07 | 0.45 | 0.45 | 99 | 986.0 |
| 20260506192721 | 46 | 281 | 0.0 | 0.0 | 0.05 | 0.44 | 0.44 | 99 | 986.0 |
| 20260506192218 | 46 | 272 | 0.9 | 0.9 | 0.05 | 0.44 | 0.44 | 99 | 985.8 |
| 20260506191714 | 46 | 267 | 0.9 | 1.7 | 0.00 | 0.43 | 0.43 | 99 | 985.8 |
| 20260506191210 | 46 | 282 | 1.7 | 1.7 | 0.00 | 0.43 | 0.43 | 99 | 985.6 |
| 20260506190708 | 46 | 279 | 0.0 | 0.0 | 0.00 | 0.43 | 0.43 | 99 | 985.5 |
| 20260506190204 | 46 | 298 | 0.9 | 0.9 | 0.00 | 0.43 | 0.43 | 99 | 985.3 |
| 20260506185702 | 46 | 273 | 0.9 | 0.9 | 0.07 | 0.43 | 0.43 | 99 | 985.6 |
| 20260506185158 | 46 | 237 | 0.9 | 1.7 | 0.07 | 0.43 | 0.43 | 99 | 985.3 |
| 20260506184656 | 46 | 271 | 0.9 | 0.9 | 0.00 | 0.42 | 0.42 | 99 | 985.3 |
| 20260506184153 | 46 | 311 | 0.0 | 0.9 | 0.00 | 0.42 | 0.42 | 99 | 985.3 |
| 20260506183649 | 46 | 0 | 0.9 | 1.7 | 0.00 | 0.42 | 0.42 | 99 | 985.0 |
| 20260506183145 | 46 | 285 | 0.9 | 0.9 | 0.00 | 0.42 | 0.42 | 99 | 985.1 |
| 20260506182643 | 46 | 295 | 0.0 | 0.0 | 0.00 | 0.42 | 0.42 | 99 | 985.1 |
| 20260506182139 | 46 | 289 | 0.0 | 0.9 | 0.00 | 0.42 | 0.42 | 99 | 985.1 |
| 20260506181638 | 46 | 276 | 0.9 | 0.9 | 0.05 | 0.42 | 0.42 | 99 | 985.1 |
| 20260506181134 | 46 | 275 | 0.0 | 0.0 | 0.05 | 0.42 | 0.42 | 99 | 985.0 |
| 20260506180631 | 45 | 276 | 0.9 | 0.9 | 0.00 | 0.41 | 0.41 | 99 | 985.3 |
| 20260506180128 | 45 | 271 | 0.9 | 0.9 | 0.00 | 0.41 | 0.41 | 99 | 985.1 |
| 20260506175624 | 45 | 305 | 1.7 | 1.7 | 0.00 | 0.41 | 0.41 | 99 | 985.1 |
| 20260506175120 | 45 | 352 | 1.7 | 1.7 | 0.00 | 0.41 | 0.41 | 99 | 985.3 |
| 20260506174619 | 45 | 272 | 0.9 | 0.9 | 0.00 | 0.41 | 0.41 | 99 | 985.1 |
| 20260506174115 | 45 | 319 | 0.9 | 0.9 | 0.00 | 0.41 | 0.41 | 99 | 984.9 |
| 20260506173613 | 46 | 343 | 1.7 | 1.7 | 0.07 | 0.41 | 0.41 | 99 | 984.9 |
| 20260506173110 | 46 | 269 | 0.9 | 0.9 | 0.07 | 0.41 | 0.41 | 99 | 985.1 |
| 20260506172607 | 46 | 273 | 0.0 | 0.0 | 0.00 | 0.40 | 0.40 | 99 | 985.0 |
| 20260506172103 | 46 | 280 | 0.0 | 0.9 | 0.00 | 0.40 | 0.40 | 99 | 984.8 |
| 20260506171601 | 46 | 282 | 0.0 | 0.0 | 0.05 | 0.40 | 0.40 | 99 | 985.0 |
| 20260506171058 | 46 | 280 | 0.9 | 0.9 | 0.05 | 0.40 | 0.40 | 99 | 985.3 |
| 20260506170555 | 46 | 10 | 0.9 | 1.7 | 0.07 | 0.39 | 0.39 | 99 | 985.3 |
| 20260506170053 | 46 | 326 | 1.7 | 1.7 | 0.07 | 0.39 | 0.39 | 99 | 985.0 |
| 20260506165551 | 47 | 286 | 1.7 | 1.7 | 0.00 | 0.38 | 0.38 | 99 | 985.0 |
| 20260506165047 | 48 | 269 | 0.9 | 1.7 | 0.05 | 0.38 | 0.38 | 99 | 984.8 |
| 20260506164544 | 49 | 290 | 0.0 | 0.0 | 0.05 | 0.38 | 0.38 | 98 | 984.8 |
| 20260506164042 | 55 | 334 | 0.9 | 1.7 | 0.00 | 0.37 | 0.37 | 99 | 984.9 |
| 20260506163537 | 54 | 317 | 0.9 | 0.9 | 0.00 | 0.37 | 0.37 | 99 | 984.7 |
| 20260506163033 | 54 | 310 | 0.9 | 1.7 | 0.00 | 0.37 | 0.37 | 98 | 984.6 |
| 20260506162530 | 55 | 268 | 0.9 | 0.9 | 0.00 | 0.37 | 0.37 | 98 | 984.6 |
| 20260506162027 | 54 | 295 | 0.9 | 0.9 | 0.00 | 0.37 | 0.37 | 98 | 984.5 |
| 20260506161525 | 54 | 343 | 0.9 | 1.7 | 0.00 | 0.37 | 0.37 | 99 | 984.4 |
| 20260506161021 | 54 | 264 | 0.0 | 0.9 | 0.00 | 0.37 | 0.37 | 99 | 984.6 |
| 20260506160519 | 54 | 268 | 0.9 | 0.9 | 0.07 | 0.37 | 0.37 | 99 | 984.6 |
| 20260506160016 | 54 | 275 | 0.0 | 0.9 | 0.07 | 0.37 | 0.37 | 99 | 984.8 |
| 20260506155515 | 54 | 259 | 0.0 | 0.9 | 0.00 | 0.36 | 0.36 | 99 | 984.8 |
| 20260506153646 | 54 | 87 | 1.7 | 2.6 | 0.07 | 0.35 | 0.35 | 99 | 984.9 |
| 20260506153143 | 54 | 330 | 1.7 | 1.7 | 0.05 | 0.34 | 0.34 | 99 | 984.9 |
| 20260506152640 | 54 | 264 | 0.0 | 0.9 | 0.12 | 0.34 | 0.34 | 99 | 984.8 |
| 20260506152137 | 54 | 300 | 0.9 | 1.7 | 0.14 | 0.33 | 0.33 | 99 | 984.9 |
| 20260506151636 | 54 | 299 | 0.0 | 0.9 | 0.07 | 0.32 | 0.32 | 99 | 984.8 |
| 20260506151132 | 54 | 101 | 1.7 | 2.6 | 0.00 | 0.31 | 0.31 | 99 | 984.9 |
| 20260506150629 | 54 | 266 | 0.0 | 0.0 | 0.05 | 0.31 | 0.31 | 99 | 984.8 |
| 20260506150126 | 54 | 303 | 0.9 | 1.7 | 0.05 | 0.31 | 0.31 | 99 | 984.7 |
| 20260506145623 | 54 | 287 | 0.9 | 0.9 | 0.05 | 0.31 | 0.31 | 99 | 984.6 |
| 20260506145120 | 54 | 300 | 1.7 | 2.6 | 0.00 | 0.30 | 0.30 | 99 | 984.7 |
| 20260506144617 | 54 | 322 | 1.7 | 1.7 | 0.00 | 0.30 | 0.30 | 99 | 984.8 |
| 20260506144114 | 54 | 269 | 0.9 | 0.9 | 0.00 | 0.30 | 0.30 | 99 | 984.5 |
| 20260506143612 | 53 | 300 | 0.9 | 0.9 | 0.00 | 0.30 | 0.30 | 99 | 984.6 |
| 20260506143110 | 53 | 263 | 0.9 | 1.7 | 0.00 | 0.30 | 0.30 | 99 | 984.7 |
| 20260506142608 | 53 | 75 | 0.9 | 0.9 | 0.07 | 0.30 | 0.30 | 99 | 984.7 |
| 20260506142106 | 53 | 270 | 1.7 | 2.6 | 0.07 | 0.30 | 0.30 | 99 | 984.6 |
| 20260506141602 | 53 | 92 | 2.6 | 3.5 | 0.00 | 0.29 | 0.29 | 99 | 984.6 |
| 20260506141101 | 53 | 263 | 1.7 | 1.7 | 0.00 | 0.29 | 0.29 | 99 | 985.0 |
| 20260506140558 | 52 | 279 | 0.0 | 0.0 | 0.05 | 0.29 | 0.29 | 99 | 984.9 |
| 20260506140055 | 52 | 254 | 1.7 | 2.6 | 0.05 | 0.29 | 0.29 | 99 | 985.3 |
| 20260506135552 | 52 | 271 | 0.0 | 0.0 | 0.07 | 0.28 | 0.28 | 99 | 985.0 |
| 20260506135048 | 51 | 286 | 2.6 | 2.6 | 0.12 | 0.28 | 0.28 | 99 | 985.3 |
| 20260506134545 | 51 | 294 | 0.9 | 0.9 | 0.12 | 0.27 | 0.27 | 99 | 985.4 |
| 20260506134041 | 51 | 303 | 1.7 | 2.6 | 0.07 | 0.26 | 0.26 | 99 | 985.1 |
| 20260506133538 | 51 | 261 | 0.9 | 0.9 | 0.05 | 0.25 | 0.25 | 99 | 985.1 |
| 20260506133035 | 51 | 12 | 1.7 | 1.7 | 0.17 | 0.25 | 0.25 | 99 | 985.5 |
| 20260506132532 | 50 | 334 | 0.9 | 0.9 | 0.24 | 0.24 | 0.24 | 99 | 985.6 |
| 20260506132030 | 50 | 294 | 0.0 | 0.0 | 0.26 | 0.22 | 0.22 | 99 | 986.0 |
| 20260506131526 | 50 | 286 | 0.0 | 0.0 | 0.26 | 0.20 | 0.20 | 99 | 985.8 |
| 20260506131023 | 50 | 279 | 0.0 | 0.0 | 0.17 | 0.18 | 0.18 | 99 | 985.7 |
| 20260506130520 | 50 | 282 | 0.0 | 0.9 | 0.17 | 0.16 | 0.16 | 99 | 985.7 |
| 20260506130017 | 49 | 275 | 1.7 | 2.6 | 0.12 | 0.15 | 0.15 | 99 | 985.4 |
| 20260506125515 | 49 | 294 | 0.0 | 0.0 | 0.12 | 0.14 | 0.14 | 99 | 985.4 |
| 20260506125013 | 48 | 317 | 0.0 | 0.0 | 0.12 | 0.13 | 0.13 | 99 | 985.3 |
| 20260506124511 | 48 | 317 | 0.0 | 0.0 | 0.05 | 0.12 | 0.12 | 99 | 985.0 |
| 20260506124008 | 48 | 275 | 0.0 | 0.0 | 0.00 | 0.11 | 0.11 | 99 | 985.3 |
| 20260506123506 | 48 | 297 | 0.0 | 0.0 | 0.00 | 0.11 | 0.11 | 99 | 984.9 |
| 20260506123004 | 47 | 295 | 0.0 | 0.0 | 0.07 | 0.11 | 0.11 | 99 | 985.3 |
| 20260506122500 | 47 | 318 | 0.0 | 0.9 | 0.07 | 0.11 | 0.11 | 99 | 985.3 |
| 20260506121959 | 47 | 317 | 0.9 | 0.9 | 0.00 | 0.10 | 0.10 | 99 | 985.3 |
| 20260506121455 | 47 | 315 | 0.0 | 0.9 | 0.00 | 0.10 | 0.10 | 99 | 985.3 |
| 20260506120952 | 46 | 316 | 0.0 | 0.9 | 0.05 | 0.10 | 0.10 | 99 | 985.5 |
| 20260506120450 | 46 | 314 | 0.0 | 0.0 | 0.12 | 0.10 | 0.10 | 99 | 985.6 |
| 20260506115947 | 46 | 320 | 0.9 | 0.9 | 0.07 | 0.09 | 0.09 | 99 | 985.6 |
| 20260506115445 | 46 | 290 | 0.0 | 0.0 | 0.07 | 0.09 | 0.09 | 99 | 985.8 |
| 20260506114943 | 46 | 277 | 0.0 | 0.0 | 0.05 | 0.08 | 0.08 | 99 | 985.8 |
| 20260506114440 | 46 | 287 | 0.0 | 0.0 | 0.05 | 0.08 | 0.08 | 99 | 985.9 |
| 20260506113938 | 46 | 266 | 0.0 | 0.0 | 0.00 | 0.07 | 0.07 | 99 | 985.9 |
| 20260506113436 | 46 | 306 | 0.9 | 0.9 | 0.00 | 0.07 | 0.07 | 99 | 986.0 |
| 20260506112932 | 46 | 295 | 0.0 | 0.0 | 0.07 | 0.07 | 0.07 | 99 | 986.2 |
| 20260506112430 | 46 | 301 | 0.0 | 0.0 | 0.07 | 0.07 | 0.07 | 99 | 986.2 |
| 20260506111927 | 46 | 301 | 0.0 | 0.0 | 0.00 | 0.06 | 0.06 | 99 | 986.4 |
| 20260506111425 | 46 | 301 | 0.0 | 0.0 | 0.07 | 0.06 | 0.06 | 99 | 986.1 |
| 20260506110922 | 46 | 301 | 0.0 | 0.0 | 0.07 | 0.06 | 0.06 | 99 | 986.3 |
| 20260506110420 | 46 | 301 | 0.0 | 0.0 | 0.00 | 0.05 | 0.05 | 99 | 986.3 |
| 20260506105916 | 46 | 301 | 0.0 | 0.0 | 0.00 | 0.05 | 0.05 | 99 | 986.5 |
| 20260506105412 | 46 | 301 | 0.0 | 0.0 | 0.05 | 0.05 | 0.05 | 99 | 986.3 |
| 20260506104910 | 46 | 301 | 0.0 | 0.0 | 0.05 | 0.05 | 0.05 | 99 | 986.2 |
| 20260506104408 | 46 | 301 | 0.0 | 0.0 | 0.00 | 0.04 | 0.04 | 99 | 986.2 |
| 20260506103905 | 46 | 301 | 0.0 | 0.0 | 0.00 | 0.04 | 0.04 | 99 | 986.2 |
| 20260506103402 | 46 | 301 | 0.0 | 0.0 | 0.00 | 0.04 | 0.04 | 99 | 985.9 |
| 20260506102859 | 46 | 301 | 0.0 | 0.0 | 0.00 | 0.04 | 0.04 | 99 | 985.6 |
| 20260506102358 | 46 | 300 | 0.0 | 0.0 | 0.00 | 0.04 | 0.04 | 99 | 985.7 |
| 20260506101854 | 46 | 300 | 0.0 | 0.0 | 0.00 | 0.04 | 0.04 | 99 | 985.9 |
| 20260506101350 | 46 | 300 | 0.0 | 0.0 | 0.00 | 0.04 | 0.04 | 99 | 986.0 |
| 20260506100848 | 46 | 300 | 0.0 | 0.0 | 0.00 | 0.04 | 0.04 | 99 | 985.8 |
| 20260506100346 | 46 | 300 | 0.0 | 0.0 | 0.07 | 0.04 | 0.04 | 99 | 985.6 |
| 20260506095844 | 46 | 301 | 0.0 | 0.0 | 0.07 | 0.04 | 0.04 | 99 | 986.0 |
| 20260506095342 | 46 | 300 | 0.0 | 0.0 | 0.00 | 0.03 | 0.03 | 99 | 985.8 |
| 20260506094838 | 46 | 300 | 0.0 | 0.0 | 0.05 | 0.03 | 0.03 | 99 | 986.0 |
| 20260506094337 | 46 | 300 | 0.0 | 0.0 | 0.05 | 0.03 | 0.03 | 99 | 985.9 |
| 20260506093835 | 46 | 300 | 0.0 | 0.0 | 0.00 | 0.02 | 0.02 | 99 | 986.0 |
| 20260506093332 | 46 | 300 | 0.0 | 0.0 | 0.00 | 0.02 | 0.02 | 99 | 985.8 |
| 20260506092829 | 46 | 300 | 0.0 | 0.0 | 0.00 | 0.02 | 0.02 | 99 | 985.9 |
| 20260506092327 | 46 | 300 | 0.0 | 0.0 | 0.00 | 0.02 | 0.02 | 99 | 985.8 |
| 20260506091824 | 46 | 300 | 0.0 | 0.0 | 0.07 | 0.02 | 0.02 | 99 | 986.0 |
| 20260506091322 | 46 | 300 | 0.0 | 0.0 | 0.07 | 0.02 | 0.02 | 99 | 986.0 |
| 20260506090819 | 46 | 300 | 0.9 | 0.9 | 0.00 | 0.01 | 0.01 | 99 | 986.0 |
| 20260506090316 | 46 | 300 | 0.0 | 0.0 | 0.00 | 0.01 | 0.01 | 99 | 986.1 |
| 20260506085813 | 46 | 300 | 0.0 | 0.0 | 0.00 | 0.01 | 0.01 | 99 | 986.0 |
| 20260506085309 | 46 | 300 | 0.0 | 0.0 | 0.00 | 0.01 | 0.01 | 99 | 985.9 |
| 20260506084806 | 46 | 284 | 0.0 | 0.0 | 0.00 | 0.01 | 0.01 | 99 | 985.9 |
| 20260506084302 | 46 | 270 | 0.0 | 0.0 | 0.00 | 0.01 | 0.01 | 99 | 986.1 |
| 20260506083759 | 46 | 270 | 0.0 | 0.0 | 0.00 | 0.01 | 0.01 | 99 | 985.9 |
| 20260506083257 | 46 | 269 | 0.0 | 0.0 | 0.00 | 0.01 | 0.01 | 99 | 985.9 |
| 20260506082754 | 46 | 269 | 0.0 | 0.0 | 0.00 | 0.01 | 0.01 | 99 | 985.9 |
| 20260506082249 | 46 | 306 | 0.0 | 0.0 | 0.00 | 0.01 | 0.01 | 99 | 985.8 |
| 20260506081747 | 46 | 270 | 0.0 | 0.0 | 0.00 | 0.01 | 0.01 | 99 | 986.0 |
| 20260506081244 | 46 | 273 | 0.0 | 0.0 | 0.00 | 0.01 | 0.01 | 99 | 986.2 |
| 20260506080743 | 46 | 265 | 0.0 | 0.0 | 0.00 | 0.01 | 0.01 | 99 | 986.0 |
| 20260506080238 | 46 | 279 | 0.0 | 0.0 | 0.00 | 0.01 | 0.01 | 99 | 986.1 |
| 20260506073223 | 45 | 299 | 0.0 | 0.0 | 0.00 | 0.01 | 0.01 | 99 | 986.5 |
| 20260506072719 | 45 | 303 | 0.0 | 0.0 | 0.00 | 0.01 | 0.01 | 99 | 986.5 |
| 20260506072217 | 45 | 300 | 0.0 | 0.0 | 0.00 | 0.01 | 0.01 | 99 | 986.7 |
| 20260506071714 | 45 | 305 | 0.0 | 0.0 | 0.00 | 0.01 | 0.01 | 99 | 986.8 |
| 20260506071212 | 45 | 305 | 0.0 | 0.0 | 0.00 | 0.01 | 0.01 | 99 | 986.9 |
| 20260506070709 | 45 | 305 | 0.0 | 0.0 | 0.00 | 0.01 | 0.01 | 99 | 986.7 |
| 20260506070206 | 45 | 305 | 0.0 | 0.0 | 0.00 | 0.01 | 0.01 | 99 | 987.0 |
| 20260506062143 | 45 | 305 | 0.0 | 0.0 | 0.00 | 0.01 | 0.01 | 99 | 987.4 |
| 20260506061639 | 45 | 305 | 0.0 | 0.0 | 0.00 | 0.01 | 0.01 | 99 | 987.3 |
| 20260506061137 | 45 | 305 | 0.0 | 0.0 | 0.00 | 0.01 | 0.01 | 99 | 987.4 |
| 20260506060635 | 44 | 305 | 0.0 | 0.0 | 0.00 | 0.01 | 0.01 | 99 | 987.3 |
| 20260506060131 | 44 | 305 | 0.0 | 0.0 | 0.00 | 0.01 | 0.01 | 99 | 987.4 |
| 20260506051103 | 45 | 305 | 0.0 | 0.0 | 0.00 | 0.00 | 0.00 | 99 | 988.2 |
| 20260506050602 | 45 | 305 | 0.0 | 0.0 | 0.00 | 0.00 | 0.00 | 98 | 988.2 |
| 20260506045052 | 46 | 305 | 0.0 | 0.0 | 0.00 | 0.23 | 0.23 | 97 | 988.2 |
| 20260506044550 | 46 | 305 | 0.0 | 0.0 | 0.00 | 0.23 | 0.23 | 97 | 988.2 |
| 20260506044046 | 47 | 305 | 0.0 | 0.0 | 0.00 | 0.23 | 0.23 | 97 | 988.2 |
| 20260506043543 | 47 | 305 | 0.0 | 0.0 | 0.00 | 0.23 | 0.23 | 97 | 988.2 |
| 20260506043042 | 47 | 313 | 0.9 | 0.9 | 0.00 | 0.23 | 0.23 | 98 | 988.4 |
| 20260506042541 | 47 | 305 | 0.0 | 0.0 | 0.00 | 0.23 | 0.23 | 97 | 988.4 |
| 20260506042038 | 47 | 310 | 0.0 | 0.0 | 0.00 | 0.23 | 0.23 | 98 | 988.1 |
| 20260506041537 | 47 | 310 | 0.0 | 0.0 | 0.00 | 0.23 | 0.23 | 97 | 988.2 |
| 20260506041033 | 48 | 303 | 0.0 | 0.0 | 0.00 | 0.23 | 0.23 | 97 | 988.4 |
| 20260506040531 | 47 | 299 | 0.0 | 0.0 | 0.00 | 0.23 | 0.23 | 97 | 988.5 |
| 20260506040026 | 48 | 278 | 0.0 | 0.9 | 0.00 | 0.23 | 0.23 | 97 | 988.5 |
| 20260506035524 | 48 | 298 | 0.0 | 0.0 | 0.00 | 0.23 | 0.23 | 97 | 988.7 |
| 20260506035020 | 47 | 307 | 0.0 | 0.0 | 0.00 | 0.23 | 0.23 | 97 | 988.7 |
| 20260506034518 | 48 | 279 | 0.0 | 0.0 | 0.00 | 0.23 | 0.23 | 97 | 988.6 |
| 20260506034015 | 48 | 279 | 0.0 | 0.0 | 0.00 | 0.23 | 0.23 | 96 | 988.5 |
| 20260506033512 | 48 | 279 | 0.0 | 0.0 | 0.00 | 0.23 | 0.23 | 96 | 988.5 |
| 20260506033009 | 48 | 280 | 0.0 | 0.0 | 0.00 | 0.23 | 0.23 | 96 | 988.4 |
| 20260506032506 | 48 | 279 | 0.0 | 0.0 | 0.00 | 0.23 | 0.23 | 96 | 988.6 |
| 20260506032002 | 48 | 280 | 0.0 | 0.0 | 0.00 | 0.23 | 0.23 | 97 | 988.9 |
| 20260506031501 | 48 | 290 | 0.0 | 0.0 | 0.00 | 0.23 | 0.23 | 97 | 988.7 |
| 20260506030957 | 49 | 275 | 0.0 | 0.0 | 0.00 | 0.23 | 0.23 | 96 | 988.8 |
| 20260506030455 | 49 | 280 | 0.0 | 0.0 | 0.00 | 0.23 | 0.23 | 97 | 988.7 |
| 20260506025952 | 48 | 290 | 0.0 | 0.0 | 0.00 | 0.23 | 0.23 | 98 | 988.8 |
| 20260506025449 | 48 | 263 | 0.9 | 0.9 | 0.00 | 0.23 | 0.23 | 98 | 988.7 |
| 20260506024945 | 49 | 275 | 0.0 | 0.0 | 0.00 | 0.23 | 0.23 | 98 | 988.6 |
| 20260506024442 | 49 | 277 | 0.0 | 0.0 | 0.00 | 0.23 | 0.23 | 98 | 988.8 |
| 20260506023938 | 49 | 261 | 0.9 | 0.9 | 0.00 | 0.23 | 0.23 | 98 | 988.9 |
| 20260506023435 | 49 | 289 | 0.0 | 0.0 | 0.00 | 0.23 | 0.23 | 98 | 988.8 |
| 20260506022932 | 49 | 290 | 0.0 | 0.0 | 0.00 | 0.23 | 0.23 | 97 | 989.0 |
| 20260506022429 | 49 | 314 | 0.0 | 0.9 | 0.00 | 0.23 | 0.23 | 97 | 989.0 |
| 20260506021927 | 50 | 277 | 0.0 | 0.0 | 0.00 | 0.23 | 0.23 | 97 | 988.8 |
| 20260506021424 | 50 | 277 | 0.0 | 0.0 | 0.00 | 0.23 | 0.23 | 97 | 988.8 |
| 20260506020921 | 50 | 278 | 0.0 | 0.0 | 0.00 | 0.23 | 0.23 | 95 | 988.9 |
| 20260506020419 | 50 | 282 | 0.0 | 0.0 | 0.00 | 0.23 | 0.23 | 96 | 988.6 |
| 20260506015916 | 50 | 302 | 0.0 | 0.0 | 0.00 | 0.23 | 0.23 | 95 | 988.4 |
| 20260506015414 | 50 | 275 | 0.0 | 0.0 | 0.00 | 0.23 | 0.23 | 95 | 988.2 |
| 20260506014910 | 51 | 296 | 0.0 | 0.0 | 0.00 | 0.23 | 0.23 | 95 | 988.1 |
| 20260506014407 | 51 | 332 | 0.9 | 1.7 | 0.00 | 0.23 | 0.23 | 95 | 988.2 |
| 20260506013904 | 51 | 288 | 0.0 | 0.0 | 0.00 | 0.23 | 0.23 | 95 | 988.5 |
| 20260506013402 | 51 | 277 | 0.9 | 0.9 | 0.00 | 0.23 | 0.23 | 95 | 988.1 |
| 20260506012857 | 51 | 274 | 0.0 | 0.9 | 0.00 | 0.23 | 0.23 | 96 | 987.9 |
| 20260506012354 | 52 | 267 | 0.0 | 0.9 | 0.00 | 0.23 | 0.23 | 95 | 987.8 |
| 20260506011852 | 52 | 266 | 0.0 | 0.9 | 0.00 | 0.23 | 0.23 | 96 | 988.1 |
| 20260506011348 | 53 | 181 | 1.7 | 2.6 | 0.00 | 0.23 | 0.23 | 98 | 988.0 |
| 20260506010846 | 53 | 279 | 0.9 | 0.9 | 0.00 | 0.23 | 0.23 | 97 | 988.0 |
| 20260506010344 | 54 | 281 | 0.0 | 0.0 | 0.00 | 0.23 | 0.23 | 97 | 988.0 |
| 20260506005840 | 54 | 292 | 0.0 | 0.0 | 0.00 | 0.23 | 0.23 | 97 | 987.8 |
| 20260506005337 | 55 | 292 | 0.0 | 0.9 | 0.00 | 0.23 | 0.23 | 97 | 987.6 |
| 20260506004833 | 55 | 266 | 0.0 | 0.9 | 0.00 | 0.23 | 0.23 | 97 | 987.3 |
| 20260506004331 | 56 | 100 | 0.9 | 1.7 | 0.00 | 0.23 | 0.23 | 97 | 987.3 |
| 20260506003827 | 56 | 288 | 0.0 | 0.0 | 0.00 | 0.23 | 0.23 | 98 | 987.3 |
| 20260506003323 | 57 | 273 | 0.0 | 0.0 | 0.00 | 0.23 | 0.23 | 97 | 987.3 |
| 20260506002820 | 57 | 260 | 1.7 | 1.7 | 0.00 | 0.23 | 0.23 | 97 | 987.0 |
| 20260506002316 | 57 | 265 | 0.0 | 0.0 | 0.00 | 0.23 | 0.23 | 98 | 986.7 |
| 20260506001812 | 57 | 294 | 0.0 | 0.0 | 0.00 | 0.23 | 0.23 | 98 | 986.9 |
| 20260506001309 | 57 | 294 | 0.0 | 0.0 | 0.00 | 0.23 | 0.23 | 98 | 986.6 |
| 20260506000806 | 57 | 294 | 0.0 | 0.0 | 0.00 | 0.23 | 0.23 | 98 | 986.5 |
| 20260506000304 | 57 | 294 | 0.0 | 0.0 | 0.00 | 0.23 | 0.23 | 98 | 986.7 |
| 20260505235800 | 58 | 294 | 0.0 | 0.0 | 0.00 | 0.23 | 0.23 | 98 | 986.5 |
| 20260505235258 | 58 | 295 | 0.0 | 0.0 | 0.00 | 0.23 | 0.23 | 98 | 986.3 |
| 20260505234755 | 58 | 295 | 0.0 | 0.0 | 0.00 | 0.23 | 0.23 | 97 | 986.2 |
| 20260505234252 | 58 | 295 | 0.0 | 0.0 | 0.00 | 0.23 | 0.23 | 97 | 986.3 |
| 20260505233749 | 58 | 295 | 0.0 | 0.0 | 0.07 | 0.23 | 0.23 | 96 | 986.3 |
| 20260505233247 | 59 | 295 | 0.0 | 0.0 | 0.07 | 0.23 | 0.23 | 95 | 986.1 |
| 20260505232744 | 59 | 289 | 0.0 | 0.0 | 0.05 | 0.22 | 0.22 | 94 | 985.9 |
| 20260505232241 | 59 | 278 | 0.9 | 0.9 | 0.05 | 0.22 | 0.22 | 94 | 986.0 |
| 20260505231737 | 59 | 275 | 0.0 | 0.0 | 0.07 | 0.21 | 0.21 | 92 | 986.3 |
| 20260505231237 | 59 | 278 | 0.0 | 0.0 | 0.07 | 0.21 | 0.21 | 93 | 986.4 |
| 20260505230735 | 59 | 272 | 0.0 | 0.0 | 0.00 | 0.20 | 0.20 | 93 | 986.3 |
| 20260505230231 | 59 | 272 | 0.0 | 0.9 | 0.00 | 0.20 | 0.20 | 92 | 986.2 |
| 20260505225727 | 59 | 253 | 1.7 | 1.7 | 0.00 | 0.20 | 0.20 | 92 | 986.1 |
| 20260505225225 | 59 | 259 | 0.9 | 0.9 | 0.00 | 0.20 | 0.20 | 92 | 986.1 |
| 20260505224720 | 60 | 258 | 0.0 | 0.0 | 0.00 | 0.20 | 0.20 | 91 | 985.7 |
| 20260505224218 | 60 | 240 | 1.7 | 1.7 | 0.00 | 0.20 | 0.20 | 89 | 985.7 |
| 20260505223715 | 60 | 263 | 0.0 | 0.0 | 0.00 | 0.20 | 0.20 | 88 | 985.7 |
| 20260505223211 | 61 | 255 | 0.9 | 0.9 | 0.00 | 0.20 | 0.20 | 90 | 985.8 |
| 20260505222707 | 61 | 275 | 1.7 | 2.6 | 0.00 | 0.20 | 0.20 | 85 | 985.8 |
| 20260505222203 | 61 | 272 | 0.0 | 0.0 | 0.00 | 0.20 | 0.20 | 86 | 985.8 |
| 20260505221701 | 61 | 293 | 0.0 | 0.9 | 0.00 | 0.20 | 0.20 | 85 | 985.8 |
| 20260505221157 | 62 | 288 | 1.7 | 1.7 | 0.00 | 0.20 | 0.20 | 82 | 985.8 |
| 20260505220654 | 61 | 276 | 1.7 | 1.7 | 0.00 | 0.20 | 0.20 | 85 | 985.8 |
| 20260505220152 | 62 | 280 | 1.7 | 1.7 | 0.00 | 0.20 | 0.20 | 86 | 985.8 |
| 20260505215650 | 62 | 282 | 0.0 | 0.0 | 0.00 | 0.20 | 0.20 | 84 | 985.6 |
| 20260505215148 | 62 | 273 | 1.7 | 2.6 | 0.00 | 0.20 | 0.20 | 83 | 985.7 |
| 20260505214645 | 61 | 244 | 0.9 | 0.9 | 0.00 | 0.20 | 0.20 | 85 | 985.4 |
| 20260505214142 | 61 | 271 | 0.9 | 0.9 | 0.00 | 0.20 | 0.20 | 86 | 985.4 |
| 20260505213640 | 61 | 343 | 0.9 | 0.9 | 0.00 | 0.20 | 0.20 | 87 | 985.1 |
| 20260505213136 | 61 | 235 | 0.9 | 0.9 | 0.00 | 0.20 | 0.20 | 88 | 985.3 |
| 20260505212632 | 61 | 257 | 1.7 | 1.7 | 0.00 | 0.20 | 0.20 | 92 | 985.4 |
| 20260505212130 | 60 | 298 | 0.0 | 0.9 | 0.00 | 0.20 | 0.20 | 91 | 985.1 |
| 20260505211627 | 60 | 339 | 0.9 | 1.7 | 0.00 | 0.20 | 0.20 | 91 | 985.1 |
| 20260505211124 | 60 | 334 | 0.0 | 0.9 | 0.00 | 0.20 | 0.20 | 90 | 985.0 |
| 20260505210621 | 59 | 270 | 0.9 | 0.9 | 0.00 | 0.20 | 0.20 | 92 | 985.0 |
| 20260505210117 | 58 | 258 | 0.9 | 0.9 | 0.00 | 0.20 | 0.20 | 92 | 985.3 |
| 20260505205615 | 58 | 264 | 0.0 | 0.9 | 0.00 | 0.20 | 0.20 | 92 | 984.9 |
| 20260505205113 | 58 | 228 | 2.6 | 2.6 | 0.00 | 0.20 | 0.20 | 91 | 985.5 |
| 20260505204610 | 58 | 258 | 1.7 | 1.7 | 0.00 | 0.20 | 0.20 | 92 | 985.3 |
| 20260505204107 | 58 | 276 | 1.7 | 1.7 | 0.12 | 0.20 | 0.20 | 92 | 985.8 |
| 20260505203603 | 57 | 258 | 0.9 | 0.9 | 0.19 | 0.20 | 0.20 | 94 | 985.9 |
| 20260505203101 | 57 | 260 | 3.5 | 5.2 | 0.12 | 0.18 | 0.18 | 92 | 986.3 |
| 20260505202556 | 58 | 264 | 1.7 | 1.7 | 0.17 | 0.17 | 0.17 | 93 | 986.5 |
| 20260505202053 | 59 | 237 | 4.3 | 5.2 | 0.12 | 0.16 | 0.16 | 91 | 986.5 |